Tracking 28790 objects as of 19-Apr-2024
HD Live streaming from Space Station
objects crossing your sky now

COSMOS 1867 COOLANT

Track COSMOS 1867 COOLANT now!
10-day predictions


NORAD ID: 39656
Int'l Code: 1987-060T
Perigee: 774.8 km
Apogee: 805.0 km
Inclination: 65.0 °
Period: 100.5 minutes
Semi major axis: 7160 km
RCS: Unknown
Launch date: July 10, 1987
Source: Commonwealth of Independent States (former USSR) (CIS)
Launch site: TYURATAM MISSILE AND SPACE COMPLEX (TTMTR)

Note: This is SATELLITE DEBRIS
Your satellite tracking list
Your tracking list is empty




NASA's NSSDC Master Catalog

Two Line Element Set (TLE):
1 39656U 87060T   24109.32925864  .00001222  00000-0  48387-3 0  9995
2 39656  65.0076  67.9047 0021076 276.0737  83.7947 14.32698867523468
Source of the keplerian elements: AFSPC